Zurück zum Katalog

COSMOS 2098

AktivMilitärPO
NORAD 20774·PAYLOAD·🇷🇺 Russia

Gestartet Aug 28, 1990 von Plesetsk Cosmodrome

Loading…

Nächste Überflüge (nächste 24 Stunden)

TLE

AktuellSource: Space-Track

Epoche: Sep 14, 2026, 14:09 UTC

1 20774U 90078A   26257.58971491  .00001726  00000-0  12157-3 0  9995
2 20774  82.9430  12.1132 0740863 321.7624  33.3123 13.90655536784941

Verfolge COSMOS 2098 in Echtzeit mit AllMySat

Download on the App Store